DW9882 Weather Reports


time (UTC)temp
F
wind
direction
speed
knots
gust
knots
rain 1hr
in
rain 24hr
in
rain mn
in
humidity
%
barometer
mb
20260902194705 88 101 2.6 2.6 0.00 0.00 0.00 22 1018.1
20260902194205 87 147 0.0 4.3 0.00 0.00 0.00 24 1018.1
20260902193705 87 76 1.7 6.1 0.00 0.00 0.00 24 1018.2
20260902193205 87 116 0.9 2.6 0.00 0.00 0.00 26 1018.3
20260902192705 87 85 2.6 6.1 0.00 0.00 0.00 24 1018.4
20260902192205 87 129 0.9 6.1 0.00 0.00 0.00 25 1018.5
20260902191705 87 111 1.7 5.2 0.00 0.00 0.00 25 1018.5
20260902191205 86 99 1.7 4.3 0.00 0.00 0.00 24 1018.5
20260902190205 86 92 0.9 2.6 0.00 0.00 0.00 24 1018.7
20260902185705 86 95 0.9 6.1 0.00 0.00 0.00 27 1018.8
20260902185205 86 167 2.6 5.2 0.00 0.00 0.00 26 1018.8
20260902184705 85 197 0.9 2.6 0.00 0.00 0.00 28 1018.9
20260902184205 85 63 1.7 2.6 0.00 0.00 0.00 27 1018.9
20260902183705 84 120 1.7 4.3 0.00 0.00 0.00 28 1019.0
20260902183206 85 71 3.5 7.0 0.00 0.00 0.00 26 1019.1
20260902182706 85 53 1.7 2.6 0.00 0.00 0.00 27 1019.2
20260902181705 84 128 0.0 2.6 0.00 0.00 0.00 27 1019.3
20260902181204 84 114 0.9 4.3 0.00 0.00 0.00 26 1019.5
20260902180705 83 72 0.9 2.6 0.00 0.00 0.00 27 1019.5
20260902175205 83 79 0.9 4.3 0.00 0.00 0.00 26 1019.8
20260902174705 83 61 2.6 6.1 0.00 0.00 0.00 27 1019.8
20260902174205 83 93 2.6 4.3 0.00 0.00 0.00 28 1019.8
20260902173205 83 141 1.7 2.6 0.00 0.00 0.00 28 1019.9
20260902172705 83 119 1.7 5.2 0.00 0.00 0.00 28 1019.9
20260902172204 82 142 0.9 2.6 0.00 0.00 0.00 31 1019.9
20260902171705 82 142 0.9 2.6 0.00 0.00 0.00 30 1020.0
20260902170705 81 152 1.7 5.2 0.00 0.00 0.00 31 1020.1
20260902170205 81 154 0.9 4.3 0.00 0.00 0.00 31 1020.1
20260902165705 81 185 0.9 2.6 0.00 0.00 0.00 32 1020.2
20260902165205 80 170 1.7 4.3 0.00 0.00 0.00 33 1020.3
20260902164705 80 111 0.9 2.6 0.00 0.00 0.00 33 1020.3
20260902164204 79 200 0.9 1.7 0.00 0.00 0.00 35 1020.3
20260902163705 79 126 0.9 2.6 0.00 0.00 0.00 36 1020.3
20260902163205 78 125 0.9 4.3 0.00 0.00 0.00 36 1020.3
20260902162705 78 170 0.0 1.7 0.00 0.00 0.00 37 1020.3
20260902162205 77 163 0.9 2.6 0.00 0.00 0.00 38 1020.3
20260902161704 77 122 0.9 2.6 0.00 0.00 0.00 40 1020.3
20260902160705 76 195 0.0 2.6 0.00 0.00 0.00 42 1020.4
20260902160205 75 195 0.9 2.6 0.00 0.00 0.00 42 1020.4
20260902155705 74 121 0.9 1.7 0.00 0.00 0.00 46 1020.4
20260902155205 73 163 0.0 1.7 0.00 0.00 0.00 45 1020.4
20260902154704 72 163 1.7 4.3 0.00 0.00 0.00 45 1020.4
20260902153705 71 207 0.9 4.3 0.00 0.00 0.00 49 1020.4
20260902153205 70 155 0.9 1.7 0.00 0.00 0.00 49 1020.4
20260902152204 69 170 1.7 2.6 0.00 0.00 0.00 51 1020.4
20260902151705 68 191 0.9 2.6 0.00 0.00 0.00 53 1020.3
20260902151204 68 191 0.0 0.9 0.00 0.00 0.00 54 1020.3
20260902150704 67 191 0.9 2.6 0.00 0.00 0.00 55 1020.3
20260902150204 66 191 0.9 1.7 0.00 0.00 0.00 60 1020.4
20260902145705 65 191 0.0 0.0 0.00 0.00 0.00 62 1020.4
20260902145204 64 191 0.0 0.0 0.00 0.00 0.00 62 1020.4
20260902144705 63 191 0.0 0.0 0.00 0.00 0.00 66 1020.4
20260902144204 63 191 0.0 0.0 0.00 0.00 0.00 69 1020.3
20260902143705 62 191 0.0 0.0 0.00 0.00 0.00 75 1020.3
20260902143204 61 191 0.0 0.0 0.00 0.00 0.00 76 1020.2
20260902142705 60 191 0.0 0.0 0.00 0.00 0.00 78 1020.3
20260902142204 59 191 0.0 0.0 0.00 0.00 0.00 79 1020.3
20260902141705 59 191 0.0 0.0 0.00 0.00 0.00 81 1020.4
20260902141205 58 191 0.0 0.0 0.00 0.00 0.00 82 1020.3
20260902140204 57 191 0.0 0.0 0.00 0.00 0.00 84 1020.3
20260902135704 56 191 0.0 0.0 0.00 0.00 0.00 84 1020.3
20260902135204 56 191 0.0 0.0 0.00 0.00 0.00 84 1020.3
20260902134705 55 191 0.0 0.0 0.00 0.00 0.00 84 1020.3
20260902134204 55 191 0.0 0.0 0.00 0.00 0.00 84 1020.3
20260902133705 55 191 0.0 0.0 0.00 0.00 0.00 83 1020.3
20260902133205 55 191 0.0 0.0 0.00 0.00 0.00 83 1020.3
20260902132704 55 191 0.0 0.0 0.00 0.00 0.00 83 1020.3
20260902132204 54 191 0.0 0.0 0.00 0.00 0.00 83 1020.3
20260902131704 54 191 0.0 0.0 0.00 0.00 0.00 82 1020.1
20260902130704 54 191 0.0 0.0 0.00 0.00 0.00 82 1020.0
20260902130204 54 191 0.0 0.0 0.00 0.00 0.00 81 1020.0
20260902125705 54 191 0.0 0.9 0.00 0.00 0.00 81 1020.0
20260902125204 54 191 0.0 0.9 0.00 0.00 0.00 80 1019.9
20260902124705 54 191 0.0 0.0 0.00 0.00 0.00 79 1019.9
20260902124205 55 191 0.0 0.9 0.00 0.00 0.00 79 1019.9
20260902123704 55 191 0.0 0.0 0.00 0.00 0.00 78 1019.8
20260902123204 55 191 0.0 0.0 0.00 0.00 0.00 78 1019.8
20260902122705 55 191 0.0 0.9 0.00 0.00 0.00 78 1019.8
20260902122204 55 191 0.0 0.9 0.00 0.00 0.00 77 1019.8
20260902121705 56 191 0.0 0.0 0.00 0.00 0.00 77 1019.7
20260902121205 56 191 0.0 0.0 0.00 0.00 0.00 76 1019.7
20260902120704 56 191 0.0 0.0 0.00 0.00 0.00 76 1019.6
20260902120205 56 191 0.0 0.0 0.00 0.00 0.00 75 1019.6
20260902115704 56 191 0.0 0.0 0.00 0.00 0.00 75 1019.6
20260902115205 56 191 0.0 0.0 0.00 0.00 0.00 75 1019.6
20260902114704 57 191 0.0 0.0 0.00 0.00 0.00 75 1019.5
20260902114205 57 191 0.0 0.0 0.00 0.00 0.00 74 1019.5
20260902113704 57 191 0.0 0.0 0.00 0.00 0.00 74 1019.4
20260902113205 57 191 0.0 0.0 0.00 0.00 0.00 73 1019.4
20260902112704 57 191 0.0 0.0 0.00 0.00 0.00 72 1019.5
20260902112204 57 191 0.0 0.0 0.00 0.00 0.00 72 1019.6
20260902111705 57 191 0.0 0.0 0.00 0.00 0.00 72 1019.7
20260902111204 58 191 0.0 0.0 0.00 0.00 0.00 71 1019.6
20260902110704 58 191 0.0 0.0 0.00 0.00 0.00 71 1019.5
20260902110204 58 191 0.0 0.0 0.00 0.00 0.00 70 1019.4
20260902105704 58 191 0.0 0.0 0.00 0.00 0.00 70 1019.4
20260902104704 58 191 0.0 0.0 0.00 0.00 0.00 69 1019.4
20260902104204 58 191 0.0 0.0 0.00 0.00 0.00 69 1019.4
20260902103704 59 191 0.0 0.0 0.00 0.00 0.00 69 1019.4
20260902102705 59 191 0.0 0.0 0.00 0.00 0.00 69 1019.2
20260902102204 59 191 0.0 0.0 0.00 0.00 0.00 69 1019.2
20260902101704 59 191 0.0 0.0 0.00 0.00 0.00 69 1019.2
20260902100704 59 191 0.0 0.0 0.00 0.00 0.00 69 1019.3
20260902100204 59 191 0.0 0.0 0.00 0.00 0.00 70 1019.3
20260902095705 59 191 0.0 0.0 0.00 0.00 0.00 69 1019.2
20260902095205 59 191 0.0 0.0 0.00 0.00 0.00 69 1019.3
20260902094704 59 191 0.0 0.0 0.00 0.00 0.00 69 1019.2
20260902094204 59 191 0.0 0.9 0.00 0.00 0.00 69 1019.2
20260902093704 59 191 0.0 0.0 0.00 0.00 0.00 69 1019.2
20260902093204 59 191 0.0 0.0 0.00 0.00 0.00 70 1019.3
20260902092204 59 191 0.0 0.0 0.00 0.00 0.00 70 1019.3
20260902091705 59 191 0.0 0.0 0.00 0.00 0.00 70 1019.3
20260902091205 59 191 0.0 0.0 0.00 0.00 0.00 70 1019.4
20260902090704 59 191 0.0 0.0 0.00 0.00 0.00 69 1019.3
20260902090204 59 191 0.0 0.0 0.00 0.00 0.00 69 1019.4
20260902085704 60 191 0.0 0.0 0.00 0.00 0.00 69 1019.3
20260902085204 60 191 0.0 0.0 0.00 0.00 0.00 69 1019.3
20260902084705 60 191 0.0 0.0 0.00 0.00 0.00 69 1019.3
20260902084204 60 191 0.0 0.0 0.00 0.00 0.00 69 1019.3
20260902083704 60 191 0.0 0.0 0.00 0.00 0.00 68 1019.3
20260902083204 60 191 0.0 0.9 0.00 0.00 0.00 68 1019.3
20260902082704 61 191 0.0 0.0 0.00 0.00 0.00 68 1019.3
20260902082205 61 191 0.0 0.0 0.00 0.00 0.00 68 1019.3
20260902081204 61 191 0.0 0.0 0.00 0.00 0.00 67 1019.3
20260902080704 61 191 0.0 0.0 0.00 0.00 0.00 66 1019.3
20260902080204 62 191 0.0 0.0 0.00 0.00 0.00 66 1019.3
20260902075704 62 191 0.0 0.0 0.00 0.00 0.00 64 1019.3
20260902075204 62 191 0.0 0.0 0.00 0.00 0.00 64 1019.3
20260902074704 63 191 0.0 0.0 0.00 0.00 0.00 64 1019.3
20260902074204 63 191 0.0 0.0 0.00 0.00 0.00 64 1019.4
20260902073704 63 191 0.0 0.0 0.00 0.00 0.00 63 1019.4
20260902073204 63 191 0.0 0.0 0.00 0.00 0.00 62 1019.4
20260902072704 63 191 0.0 0.0 0.00 0.00 0.00 62 1019.4
20260902072205 64 191 0.0 0.0 0.00 0.00 0.00 62 1019.4
20260902071704 64 191 0.0 0.0 0.00 0.00 0.00 61 1019.4
20260902071204 64 191 0.0 0.0 0.00 0.01 0.00 62 1019.3
20260902070205 64 191 0.9 1.7 0.00 0.01 0.00 62 1019.2
20260902065704 64 191 0.0 1.7 0.00 0.01 0.00 61 1019.2
20260902064704 64 191 0.0 0.0 0.00 0.01 0.00 61 1019.2
20260902063705 64 191 0.0 0.9 0.00 0.01 0.00 61 1019.2
20260902063204 64 191 0.0 0.0 0.00 0.01 0.00 62 1019.1
20260902062704 64 191 0.0 0.0 0.00 0.01 0.00 60 1019.0
20260902062204 64 191 0.0 0.0 0.00 0.01 0.00 61 1019.0
20260902061705 64 191 0.0 2.6 0.00 0.01 0.00 61 1019.1
20260902061204 65 217 0.0 0.0 0.00 0.02 0.00 61 1019.1
20260902060705 65 217 0.0 1.7 0.00 0.02 0.00 61 1019.1
20260902055704 65 218 0.0 1.7 0.00 0.02 0.02 61 1019.1
20260902055204 65 218 0.0 0.0 0.00 0.02 0.02 60 1019.1
20260902053704 65 217 0.0 0.9 0.00 0.02 0.02 58 1019.0
20260902053203 65 217 0.0 0.9 0.00 0.02 0.02 58 1019.0
20260902052704 66 218 0.0 0.0 0.00 0.02 0.02 59 1019.1
20260902052204 66 218 0.0 0.0 0.00 0.02 0.02 58 1019.1
20260902051704 66 218 0.0 0.0 0.00 0.02 0.02 58 1019.2
20260902050704 67 217 0.0 0.0 0.00 0.02 0.02 56 1019.2
20260902050204 67 218 0.0 0.0 0.00 0.02 0.02 56 1019.2
20260902045704 67 217 0.0 0.0 0.00 0.02 0.02 55 1019.1
20260902045204 67 218 0.0 0.0 0.00 0.02 0.02 55 1019.2
20260902044704 67 218 0.0 0.0 0.00 0.02 0.02 55 1019.3
20260902044204 68 217 0.0 0.9 0.00 0.02 0.02 54 1019.3
20260902043704 68 218 0.9 1.7 0.00 0.02 0.02 54 1019.3
20260902043204 68 217 0.0 0.0 0.00 0.02 0.02 53 1019.3
20260902042704 68 217 0.0 0.0 0.00 0.02 0.02 54 1019.4
20260902041704 69 217 0.0 0.0 0.00 0.02 0.02 52 1019.4
20260902041204 69 217 0.0 0.0 0.00 0.02 0.02 53 1019.5
20260902040704 69 217 0.0 0.0 0.00 0.02 0.02 53 1019.4
20260902035703 69 217 0.0 0.0 0.00 0.02 0.02 53 1019.4
20260902035204 69 217 0.0 0.0 0.00 0.02 0.02 53 1019.4
20260902034704 69 217 0.0 0.0 0.00 0.02 0.02 52 1019.4
20260902034205 70 217 0.9 2.6 0.00 0.02 0.02 51 1019.3
20260902033704 70 28 0.0 0.9 0.00 0.02 0.02 51 1019.4
20260902033203 70 28 0.0 0.0 0.00 0.02 0.02 50 1019.3
20260902032204 71 28 0.0 0.9 0.00 0.02 0.02 49 1019.3
20260902031704 71 28 0.0 0.0 0.00 0.02 0.02 48 1019.3
20260902031204 72 28 0.0 0.9 0.00 0.02 0.02 48 1019.2
20260902030704 72 28 0.0 0.0 0.00 0.02 0.02 47 1019.2
20260902030204 73 28 0.0 0.9 0.00 0.02 0.02 47 1019.3
20260902025704 73 28 0.0 1.7 0.00 0.02 0.02 45 1019.3
20260902025204 74 28 0.0 0.0 0.00 0.02 0.02 44 1019.2
20260902024703 74 28 0.0 0.9 0.00 0.02 0.02 43 1019.2
20260902024203 75 28 0.0 0.0 0.00 0.03 0.02 42 1019.1
20260902023204 76 28 0.0 0.0 0.00 0.04 0.02 39 1018.8
20260902022704 76 28 0.9 1.7 0.00 0.06 0.02 39 1018.8
20260902021706 77 28 0.0 0.0 0.00 0.10 0.02 37 1018.7
20260902021205 77 28 0.0 0.0 0.00 0.11 0.02 35 1018.6
20260902020705 78 28 0.0 0.9 0.00 0.12 0.02 35 1018.5
20260902015706 78 28 0.0 2.6 0.00 0.15 0.02 34 1018.4
20260902015206 78 28 0.9 2.6 0.00 0.16 0.02 34 1018.5
20260902014705 79 28 0.9 2.6 0.00 0.16 0.02 34 1018.5
20260902013205 79 353 0.9 4.3 0.00 0.16 0.02 33 1018.5
20260902012705 80 13 0.9 2.6 0.00 0.16 0.02 32 1018.5
20260902012206 80 12 1.7 4.3 0.00 0.16 0.02 31 1018.5
20260902011705 80 0 1.7 4.3 0.00 0.16 0.02 30 1018.4
20260902011205 80 12 0.9 2.6 0.00 0.16 0.02 31 1018.3
20260902010705 81 308 0.9 8.7 0.00 0.16 0.02 32 1018.3
20260902010206 81 355 0.0 1.7 0.00 0.16 0.02 32 1018.3
20260902005705 82 355 0.0 4.3 0.00 0.16 0.02 31 1018.1
20260902005205 82 18 0.0 0.9 0.00 0.16 0.02 30 1018.1
20260902004706 82 18 0.0 0.0 0.00 0.16 0.02 32 1018.2
20260902003705 83 18 0.0 0.0 0.00 0.16 0.02 31 1018.1
20260902003206 83 18 0.0 0.0 0.00 0.16 0.02 31 1018.1
20260902002705 83 18 0.0 0.0 0.00 0.16 0.02 31 1018.2
20260902002205 84 18 0.0 0.0 0.00 0.16 0.02 33 1018.2
20260902001205 84 18 0.9 2.6 0.00 0.16 0.02 28 1018.2
20260902000706 84 18 1.7 6.1 0.00 0.16 0.02 28 1018.2
20260902000205 84 48 0.0 1.7 0.00 0.16 0.02 30 1018.2
20260901235705 85 48 0.9 2.6 0.00 0.16 0.02 27 1018.2
20260901235206 85 58 1.7 4.3 0.00 0.16 0.02 27 1018.2
20260901234706 85 36 0.9 2.6 0.00 0.16 0.02 28 1018.2
20260901234206 85 9 1.7 2.6 0.00 0.16 0.02 27 1018.2
20260901233706 86 65 1.7 2.6 0.00 0.16 0.02 26 1018.2
20260901232706 87 342 3.5 6.1 0.00 0.16 0.02 26 1018.2
20260901232205 87 353 1.7 4.3 0.00 0.16 0.02 27 1018.2
20260901231705 87 10 1.7 4.3 0.00 0.16 0.02 26 1018.2
20260901231205 87 68 2.6 6.1 0.00 0.16 0.02 26 1018.2
20260901230705 87 94 0.9 2.6 0.00 0.16 0.02 27 1018.2
20260901230206 86 114 0.9 2.6 0.00 0.16 0.02 28 1018.2
20260901225706 86 53 1.7 4.3 0.00 0.16 0.02 28 1018.2
20260901225205 86 93 0.9 5.2 0.00 0.16 0.02 29 1018.2
20260901224205 86 0 0.9 5.2 0.00 0.16 0.02 28 1018.3
20260901223705 86 5 1.7 2.6 0.00 0.16 0.02 28 1018.3
20260901223205 86 40 1.7 6.1 0.00 0.16 0.02 28 1018.3
20260901222705 86 19 0.9 7.0 0.00 0.16 0.02 30 1018.3
20260901222205 86 351 1.7 4.3 0.00 0.16 0.02 29 1018.4
20260901221706 85 21 2.6 6.1 0.00 0.16 0.02 27 1018.4
20260901221205 85 75 1.7 6.1 0.00 0.16 0.02 28 1018.5
20260901220705 85 49 2.6 7.8 0.00 0.16 0.02 27 1018.5
20260901220205 85 31 1.7 7.8 0.00 0.16 0.02 28 1018.5
20260901215706 85 23 1.7 7.0 0.00 0.16 0.02 28 1018.6
20260901215206 85 30 2.6 7.0 0.00 0.16 0.02 28 1018.6
20260901214705 86 11 3.5 7.8 0.00 0.16 0.02 28 1018.6
20260901214206 86 20 0.9 7.8 0.00 0.16 0.02 28 1018.6
20260901213705 86 5 1.7 5.2 0.00 0.16 0.02 27 1018.7
20260901213206 87 345 1.7 5.2 0.00 0.16 0.02 28 1018.7
20260901212705 87 33 0.9 2.6 0.00 0.16 0.02 29 1018.8
20260901212205 87 25 0.0 2.6 0.00 0.16 0.02 28 1018.7
20260901211705 87 24 1.7 5.2 0.00 0.16 0.02 28 1018.7
20260901210705 86 92 0.9 2.6 0.00 0.16 0.02 29 1018.8
20260901210205 86 90 0.9 1.7 0.00 0.16 0.02 33 1018.8
20260901205705 86 90 0.9 2.6 0.00 0.16 0.02 29 1018.9
20260901205205 86 74 0.0 2.6 0.00 0.16 0.02 30 1018.9
20260901204705 87 40 2.6 6.1 0.00 0.16 0.02 28 1018.9
20260901204205 87 110 0.9 2.6 0.00 0.16 0.02 28 1018.9
20260901203705 87 101 0.9 1.7 0.00 0.16 0.02 32 1018.9
20260901203205 86 136 0.9 2.6 0.00 0.16 0.02 30 1019.0
20260901202705 86 107 0.9 6.1 0.00 0.16 0.02 32 1019.1
20260901202206 86 116 0.9 2.6 0.00 0.16 0.02 32 1019.1
20260901201705 85 136 0.0 2.6 0.00 0.16 0.02 34 1019.2
20260901201205 85 74 0.9 5.2 0.00 0.16 0.02 31 1019.2
20260901200705 84 13 0.9 2.6 0.00 0.16 0.02 32 1019.2
20260901200205 84 13 1.7 4.3 0.00 0.16 0.02 31 1019.3
20260901195705 83 99 0.9 2.6 0.00 0.16 0.02 33 1019.4